Redding, CA

12:08 PM PST on November 22, 2019 (GMT -0800)
Redding Municipal

Weather History for KRDD - September, 2019

Change the Weather History Date:

Wednesday, September 11, 2019

  Actual Average Record
Temperature  
Mean Temperature 75 °F -  
Max Temperature 90 °F 92 °F 113 °F (1945)
Min Temperature 59 °F 59 °F 45 °F (1985)
Degree Days  
Heating Degree Days 0    
Cooling Degree Days 10    
Growing Degree Days 24 (Base 50)    
Moisture  
Dew Point 45 °F    
Average Humidity 41    
Maximum Humidity 69    
Minimum Humidity 13    
Precipitation  
Precipitation 0.00 in 0.03 in 1.70 in (1895)
Month to date precipitation T 0.20  
Year to date precipitation 32.27 21.33  
Sea Level Pressure  
Sea Level Pressure 29.99 in    
Wind  
Wind Speed 4 mph (NNW)    
Max Wind Speed 13 mph    
Max Gust Speed 18 mph    
Visibility 10 miles    
Events      
T = Trace of Precipitation, MM = Missing Value Source: NWS Daily Summary

Daily Weather History Graph

Daily Weather History Graph

Search for Another Location

Airport or City:

Astronomy

Sep. 11, 2019 Rise Set
Actual Time 6:45 AM PDT 7:24 PM PDT
Civil Twilight 6:18 AM PDT 7:52 PM PDT
Nautical Twilight 5:45 AM PDT 8:24 PM PDT
Astronomical Twilight 5:12 AM PDT 8:58 PM PDT
Moon 6:40 PM PDT (9/11) 4:12 AM PDT (9/11)
Length of Visible Light 13h 34m
Length of Day
12h 39m
Waxing Gibbous, 95% of the Moon is Illuminated
Sep 11
Waxing Gibbous
Sep 13
Full
Sep 21
Last Quarter
Sep 28
New
Oct 5
First Quarter

Hourly Weather History & Observations

Time (PDT) Temp. Dew Point Humidity Pressure Visibility Wind Dir Wind Speed Gust Speed Precip Events Conditions
12:53 AM 66.9 °F 51.1 °F 57% 29.94 in 10.0 mi Calm Calm - N/A   Clear
1:53 AM 66.0 °F 50.0 °F 56% 29.95 in 10.0 mi North 4.6 mph - N/A   Clear
2:53 AM 64.0 °F 52.0 °F 65% 29.95 in 10.0 mi NW 4.6 mph - N/A   Clear
3:53 AM 64.9 °F 52.0 °F 63% 29.96 in 10.0 mi NNW 4.6 mph - N/A   Clear
4:53 AM 63.0 °F 51.1 °F 65% 29.97 in 10.0 mi North 4.6 mph - N/A   Clear
5:53 AM 60.1 °F 50.0 °F 69% 29.99 in 10.0 mi NNE 3.5 mph - N/A   Clear
6:53 AM 63.0 °F 51.1 °F 65% 30.01 in 10.0 mi NNW 4.6 mph - N/A   Clear
7:53 AM 66.9 °F 50.0 °F 54% 30.03 in 10.0 mi NNW 5.8 mph - N/A   Clear
8:53 AM 72.0 °F 48.0 °F 43% 30.05 in 10.0 mi North 10.4 mph - N/A   Clear
9:53 AM 75.9 °F 46.9 °F 36% 30.05 in 10.0 mi NNE 10.4 mph - N/A   Clear
10:53 AM 78.1 °F 46.9 °F 33% 30.05 in 10.0 mi Variable 6.9 mph - N/A   Clear
11:53 AM 82.0 °F 45.0 °F 27% 30.04 in 10.0 mi NNW 6.9 mph - N/A   Clear
12:53 PM 82.9 °F 44.1 °F 25% 30.04 in 10.0 mi Variable 6.9 mph - N/A   Clear
1:53 PM 86.0 °F 42.1 °F 21% 30.01 in 10.0 mi West 9.2 mph - N/A   Clear
2:53 PM 86.0 °F 39.9 °F 20% 30.00 in 10.0 mi Variable 3.5 mph - N/A   Clear
3:53 PM 88.0 °F 37.0 °F 16% 29.98 in 10.0 mi WSW 6.9 mph - N/A   Clear
4:53 PM 89.1 °F 32.0 °F 13% 29.97 in 10.0 mi North 4.6 mph - N/A   Clear
5:53 PM 89.1 °F 30.0 °F 12% 29.96 in 10.0 mi NNE 4.6 mph - N/A   Clear
6:53 PM 87.1 °F 37.9 °F 18% 29.96 in 10.0 mi Calm Calm - N/A   Clear
7:53 PM 79.0 °F 42.1 °F 27% 29.96 in 10.0 mi North 3.5 mph - N/A   Clear
8:53 PM 73.0 °F 42.1 °F 33% 29.97 in 10.0 mi WNW 4.6 mph - N/A   Clear
9:53 PM 72.0 °F 44.1 °F 37% 29.99 in 10.0 mi NNW 4.6 mph - N/A   Clear
10:53 PM 70.0 °F 44.1 °F 39% 29.99 in 10.0 mi Calm Calm - N/A   Clear
11:53 PM 73.9 °F 44.1 °F 34% 29.99 in 10.0 mi North 8.1 mph - N/A   Clear